Location: *
(43.6428°N, 11.5461°E)
Time: 14:37:23
(UTC+00:00)

USA 238 - Pass Details

Date: 21 October 2019
Orbit: 1027 x 1185 km, 63.4° (Epoch: 19 November)

Event Time Altitude Azimuth Distance (km) Brightness Sun altitude
Rises 17:07:24 0° 198° (SSW) 3,763 6.9 -9.0°
Reaches altitude 10° 17:10:02 10° 194° (SSW) 2,822 6.2 -9.5°
Maximum altitude 17:16:28 55° 119° (ESE) 1,250 3.8 -10.6°
Drops below altitude 10° 17:23:08 10° 44° (NE) 2,917 5.6 -11.9°
Enters shadow 17:25:12 - 41° (NE) 3,655 6.1 -12.2°
